Cut Bank, MT

6:54 AM MST on February 26, 2017 (GMT -0700)
Cut Bank Municipal

Weather History for KCTB - July, 2013

Change the Weather History Date:

Thursday, July 25, 2013

  Actual Average Record
Temperature  
Mean Temperature 65 °F 66 °F  
Max Temperature 81 °F 82 °F 100 °F (1933)
Min Temperature 49 °F 51 °F 40 °F (2001)
Degree Days  
Heating Degree Days 0 2  
Month to date heating degree days 26 76  
Since 1 June heating degree days 235 309  
Since 1 July heating degree days 26 76  
Cooling Degree Days 0 3  
Month to date cooling degree days 76 54  
Year to date cooling degree days 90 71  
Since 1 June cooling degree days 88 69  
Growing Degree Days 16 (Base 50)    
Moisture  
Dew Point 50 °F    
Average Humidity 64    
Maximum Humidity 93    
Minimum Humidity 35    
Precipitation  
Precipitation 0.00 in 0.03 in 2.33 in (1913)
Month to date precipitation 1.54 1.07  
Year to date precipitation 9.33 7.26  
Snow  
Snow 0.00 in - - ()
Snow Depth 0.00 in    
Sea Level Pressure  
Sea Level Pressure 30.12 in    
Wind  
Wind Speed 9 mph (ESE)    
Max Wind Speed 18 mph    
Max Gust Speed 24 mph    
Visibility 10 miles    
Events      
T = Trace of Precipitation, MM = Missing Value Source: NWS Daily Summary

Daily Weather History Graph

Daily Weather History Graph

Search for Another Location

Airport or City:

Trip Planner

Search our weather history database for the weather conditions in past years. The results will help you decide how hot, cold, wet, or windy it might be!

Date:

Astronomy

Jul. 25, 2013 Rise Set
Actual Time 5:55 AM MDT 9:16 PM MDT
Civil Twilight 5:16 AM MDT 9:54 PM MDT
Nautical Twilight 4:26 AM MDT 10:44 PM MDT
Astronomical Twilight 3:19 AM MDT 11:49 PM MDT
Moon 10:33 PM MDT (7/25) 9:51 AM MDT (7/25)
Length of Visible Light 16h 37m
Length of Day
15h 21m
Waning Gibbous, 88% of the Moon is Illuminated
Jul 25
Waning Gibbous
Jul 29
Last Quarter
Aug 6
New
Aug 14
First Quarter
Aug 20
Full

Hourly Weather History & Observations

Time (MDT) Temp. Dew Point Humidity Pressure Visibility Wind Dir Wind Speed Gust Speed Precip Events Conditions
12:56 AM 57.9 °F 51.1 °F 78% 30.13 in 10.0 mi NNE 10.4 mph - N/A   Partly Cloudy
1:56 AM 55.9 °F 50.0 °F 80% 30.14 in 10.0 mi North 5.8 mph - N/A   Clear
2:56 AM 52.0 °F 48.0 °F 86% 30.15 in 10.0 mi NNW 4.6 mph - N/A   Clear
3:56 AM 51.1 °F 48.0 °F 89% 30.14 in 10.0 mi West 3.5 mph - N/A   Clear
4:56 AM 51.1 °F 48.0 °F 89% 30.16 in 10.0 mi North 12.7 mph - N/A   Clear
5:56 AM 50.0 °F 48.0 °F 93% 30.17 in 10.0 mi West 3.5 mph - N/A   Clear
6:56 AM 53.1 °F 50.0 °F 89% 30.18 in 10.0 mi Calm Calm - N/A   Clear
7:56 AM 59.0 °F 52.0 °F 78% 30.18 in 10.0 mi Calm Calm - N/A   Clear
8:56 AM 64.0 °F 52.0 °F 65% 30.17 in 10.0 mi Calm Calm - N/A   Clear
9:56 AM 66.9 °F 50.0 °F 54% 30.18 in 10.0 mi ESE 4.6 mph - N/A   Clear
10:56 AM 69.1 °F 52.0 °F 54% 30.17 in 10.0 mi ESE 10.4 mph 16.1 mph N/A   Partly Cloudy
11:56 AM 73.0 °F 53.1 °F 49% 30.15 in 10.0 mi SE 8.1 mph - N/A   Partly Cloudy
12:56 PM 75.0 °F 52.0 °F 44% 30.13 in 10.0 mi ESE 11.5 mph 17.3 mph N/A   Partly Cloudy
1:56 PM 75.9 °F 51.1 °F 42% 30.12 in 10.0 mi ESE 15.0 mph 19.6 mph N/A   Scattered Clouds
2:56 PM 79.0 °F 52.0 °F 39% 30.11 in 10.0 mi SSE 11.5 mph 19.6 mph N/A   Scattered Clouds
3:56 PM 80.1 °F 51.1 °F 36% 30.09 in 10.0 mi ESE 15.0 mph 18.4 mph N/A   Clear
4:56 PM 81.0 °F 50.0 °F 34% 30.08 in 10.0 mi SE 10.4 mph 16.1 mph N/A   Clear
5:56 PM 81.0 °F 50.0 °F 34% 30.07 in 10.0 mi East 12.7 mph - N/A   Clear
6:56 PM 79.0 °F 48.9 °F 35% 30.07 in 10.0 mi East 16.1 mph - N/A   Clear
7:56 PM 77.0 °F 48.9 °F 37% 30.06 in 10.0 mi ESE 13.8 mph - N/A   Clear
8:56 PM 72.0 °F 50.0 °F 46% 30.07 in 10.0 mi ESE 13.8 mph - N/A   Clear
9:56 PM 69.1 °F 50.0 °F 51% 30.08 in 10.0 mi ESE 16.1 mph 21.9 mph N/A   Clear
10:56 PM 66.0 °F 48.9 °F 54% 30.09 in 10.0 mi ESE 15.0 mph - N/A   Clear
11:56 PM 63.0 °F 48.0 °F 58% 30.09 in 10.0 mi ESE 12.7 mph - N/A   Clear